Location: Lombard
(41.8800°N, 88.0080°W)
Time: 06:34:32
(UTC-05:00)

A-11 Canister half - Pass Details

Date: 23 April 2025
Orbit: 1514 x 1685 km, 47.2° (Epoch: 13 May)

Event Time Altitude Azimuth Distance (km) Brightness Sun altitude
Rises 05:02:58 0° 182° (S) 4,650 11.2 -10.5°
Reaches altitude 10° 05:07:15 10° 164° (SSE) 3,664 10.9 -9.7°
Maximum altitude 05:12:54 18° 125° (SE) 3,072 11.0 -8.8°
Drops below altitude 10° 05:18:35 10° 87° (E) 3,688 12.3 -7.8°
Sets 05:22:52 0° 70° (ENE) 4,692 14.2 -7.1°
